Tracking 30990 objects as of 8-Jul-2025
HD Live streaming from Space Station
objects crossing your sky now

STARLINK-30323

Track STARLINK-30323 now!
10-day predictions
STARLINK-30323 is classified as:


NORAD ID: 57634
Int'l Code: 2023-122C
Perigee: 565.5 km
Apogee: 567.0 km
Inclination: 43.0 °
Period: 95.8 minutes
Semi major axis: 6937 km
RCS: Unknown
Launch date: August 17, 2023
Source: United States (US)
Launch site: AIR FORCE EASTERN TEST RANGE (AFETR)
Your satellite tracking list
Your tracking list is empty




NASA's NSSDC Master Catalog

Two Line Element Set (TLE):
1 57634U 23122C   25188.81947486  .00000330  00000-0  39500-4 0  9993
2 57634  43.0043 331.8952 0001092 276.1567  83.9151 15.02531585105488
Source of the keplerian elements: AFSPC